Location: Mohawk View
(42.7837°N, 73.7885°W)
Time: 08:36:57
(UTC+00:00)

CZ-2D R/B - Pass Details

Date: 17 June 2021
Orbit: 791 x 845 km, 98.7° (Epoch: 27 July)

Event Time Altitude Azimuth Distance (km) Brightness Sun altitude
Rises 06:01:17 0° 20° (NNE) 3,303 6.8 -22.1°
Reaches altitude 10° 06:03:44 10° 26° (NNE) 2,367 5.6 -22.0°
Maximum altitude 06:08:43 45° 99° (E) 1,076 2.8 -21.7°
Enters shadow 06:10:32 32° 147° (SSE) 1,323 2.9 -21.6°
